When you browse on this site, cookies collect data to enhance your experience and personalize the content and advertising you see.
Visit our Privacy Policy to learn more. By continuing to use the site, you agree to this use of cookies and data.
  • In Österreich
  • Länderverzeichnis
  • Für 7 Tage
  • Wassertemperatur
  • Satellitenkarten
  • Wetterkarte
  • News
  • Widgets
  • user-avatar
    Anmelden

    Stündliche Wetter Roseau

    Heute, 19 November, Montag

    Zeit Temperatur Niederschläge Wind Luftdruck Luftfeuchtigkeit
    00:00 +29°C° 0.3 mm 8 m/S 760 mmHg 79%
    01:00 +29°C° 0.3 mm 8 m/S 760 mmHg 79%
    02:00 +29°C° 0.3 mm 8 m/S 760 mmHg 79%
    03:00 +29°C° 0.3 mm 8 m/S 760 mmHg 79%
    04:00 +29°C° 0.3 mm 8 m/S 760 mmHg 79%
    05:00 +29°C° 0.3 mm 8 m/S 760 mmHg 79%
    06:00 +29°C° 0.4 mm 9 m/S 760 mmHg 79%
    07:00 +29°C° 0.4 mm 9 m/S 761 mmHg 79%
    08:00 +29°C° 0.4 mm 9 m/S 761 mmHg 78%
    09:00 +29°C° 0.3 mm 9 m/S 761 mmHg 77%
    10:00 +31°C° 0.3 mm 9 m/S 761 mmHg 77%
    11:00 +31°C° 0.3 mm 9 m/S 761 mmHg 76%
    12:00 +31°C° 0.2 mm 9 m/S 761 mmHg 76%
    13:00 +31°C° 0.2 mm 9 m/S 760 mmHg 75%
    14:00 +31°C° 0.2 mm 9 m/S 760 mmHg 75%
    15:00 +31°C° 0.1 mm 9 m/S 760 mmHg 75%
    16:00 +31°C° 0.1 mm 9 m/S 760 mmHg 75%
    17:00 +31°C° 0.1 mm 8 m/S 759 mmHg 75%
    18:00 +31°C° 0 mm 8 m/S 760 mmHg 75%
    19:00 +29°C° 0 mm 8 m/S 760 mmHg 76%
    20:00 +29°C° 0 mm 8 m/S 761 mmHg 77%
    21:00 +29°C° 0 mm 8 m/S 761 mmHg 77%
    22:00 +29°C° 0 mm 8 m/S 761 mmHg 77%
    23:00 +29°C° 0 mm 8 m/S 761 mmHg 77%

    Morgen, 20 November, Dienstag

    Zeit Temperatur Niederschläge Wind Luftdruck Luftfeuchtigkeit
    00:00 +29°C° 0 mm 8 m/S 761 mmHg 77%
    01:00 +29°C° 0 mm 8 m/S 760 mmHg 77%
    02:00 +29°C° 0 mm 8 m/S 760 mmHg 76%
    03:00 +29°C° 0 mm 8 m/S 760 mmHg 76%
    04:00 +29°C° 0 mm 8 m/S 760 mmHg 75%
    05:00 +28°C° 0 mm 7 m/S 760 mmHg 75%
    06:00 +29°C° 0 mm 7 m/S 760 mmHg 75%
    07:00 +29°C° 0 mm 7 m/S 761 mmHg 74%
    08:00 +29°C° 0 mm 7 m/S 761 mmHg 74%
    09:00 +29°C° 0 mm 7 m/S 761 mmHg 73%
    10:00 +30°C° 0 mm 7 m/S 762 mmHg 72%
    11:00 +31°C° 0 mm 8 m/S 762 mmHg 72%
    12:00 +30°C° 0 mm 7 m/S 761 mmHg 70%
    13:00 +30°C° 0 mm 7 m/S 760 mmHg 69%
    14:00 +30°C° 0 mm 7 m/S 760 mmHg 67%
    15:00 +30°C° 0 mm 7 m/S 760 mmHg 68%
    16:00 +30°C° 0 mm 7 m/S 760 mmHg 68%
    17:00 +31°C° 0 mm 8 m/S 760 mmHg 68%
    18:00 +29°C° 0 mm 8 m/S 760 mmHg 72%
    19:00 +29°C° 0 mm 8 m/S 760 mmHg 75%
    20:00 +29°C° 0 mm 8 m/S 761 mmHg 78%
    21:00 +29°C° 0 mm 8 m/S 761 mmHg 78%
    22:00 +29°C° 0 mm 8 m/S 761 mmHg 78%
    23:00 +29°C° 0 mm 8 m/S 761 mmHg 78%

    übermorgen, 21 November, Mittwoch

    Zeit Temperatur Niederschläge Wind Luftdruck Luftfeuchtigkeit
    00:00 +29°C° 0 mm 8 m/S 761 mmHg 77%
    01:00 +29°C° 0 mm 8 m/S 761 mmHg 77%
    02:00 +29°C° 0 mm 8 m/S 760 mmHg 77%
    03:00 +29°C° 0 mm 8 m/S 760 mmHg 77%
    04:00 +29°C° 0 mm 8 m/S 760 mmHg 77%
    05:00 +29°C° 0 mm 8 m/S 760 mmHg 77%
    06:00 +29°C° 0 mm 9 m/S 761 mmHg 77%
    07:00 +29°C° 0 mm 9 m/S 761 mmHg 76%
    08:00 +29°C° 0 mm 9 m/S 762 mmHg 76%
    09:00 +31°C° 0 mm 9 m/S 762 mmHg 76%
    10:00 +31°C° 0 mm 8 m/S 762 mmHg 75%
    11:00 +31°C° 0 mm 8 m/S 762 mmHg 75%
    12:00 +31°C° 0 mm 8 m/S 761 mmHg 75%
    13:00 +31°C° 0 mm 8 m/S 761 mmHg 75%
    14:00 +31°C° 0 mm 8 m/S 760 mmHg 75%
    15:00 +31°C° 0 mm 8 m/S 760 mmHg 75%
    16:00 +31°C° 0 mm 8 m/S 760 mmHg 76%
    17:00 +31°C° 0 mm 8 m/S 759 mmHg 76%
    18:00 +31°C° 0.1 mm 8 m/S 760 mmHg 77%
    19:00 +31°C° 0.1 mm 9 m/S 760 mmHg 77%
    20:00 +29°C° 0.1 mm 9 m/S 760 mmHg 78%
    21:00 +29°C° 0.1 mm 9 m/S 760 mmHg 78%
    22:00 +29°C° 0.1 mm 9 m/S 760 mmHg 78%
    23:00 +29°C° 0.1 mm 9 m/S 760 mmHg 78%

    22 November, Donnerstag

    Zeit Temperatur Niederschläge Wind Luftdruck Luftfeuchtigkeit
    00:00 +29°C° 0.3 mm 9 m/S 760 mmHg 79%
    01:00 +29°C° 0.3 mm 9 m/S 760 mmHg 79%
    02:00 +29°C° 0.3 mm 9 m/S 759 mmHg 79%
    03:00 +29°C° 0.2 mm 9 m/S 759 mmHg 79%
    04:00 +29°C° 0.2 mm 9 m/S 759 mmHg 79%
    05:00 +29°C° 0.2 mm 9 m/S 759 mmHg 78%
    06:00 +29°C° 0.1 mm 9 m/S 760 mmHg 78%
    07:00 +29°C° 0.1 mm 9 m/S 760 mmHg 78%
    08:00 +29°C° 0.1 mm 9 m/S 761 mmHg 77%
    09:00 +31°C° 0 mm 9 m/S 761 mmHg 76%
    10:00 +31°C° 0 mm 8 m/S 761 mmHg 75%
    11:00 +31°C° 0 mm 8 m/S 761 mmHg 75%
    12:00 +31°C° 0 mm 8 m/S 760 mmHg 74%
    13:00 +31°C° 0 mm 8 m/S 759 mmHg 74%
    14:00 +30°C° 0 mm 7 m/S 759 mmHg 74%
    15:00 +30°C° 0.1 mm 7 m/S 758 mmHg 75%
    16:00 +30°C° 0.1 mm 7 m/S 758 mmHg 76%
    17:00 +30°C° 0.1 mm 7 m/S 758 mmHg 77%
    18:00 +29°C° 0.1 mm 7 m/S 759 mmHg 77%
    19:00 +29°C° 0.1 mm 8 m/S 759 mmHg 78%
    20:00 +29°C° 0.1 mm 8 m/S 759 mmHg 79%
    21:00 +29°C° 0.1 mm 8 m/S 759 mmHg 79%
    22:00 +29°C° 0.1 mm 8 m/S 759 mmHg 79%
    23:00 +29°C° 0.1 mm 8 m/S 759 mmHg 79%

    23 November, Freitag

    Zeit Temperatur Niederschläge Wind Luftdruck Luftfeuchtigkeit
    00:00 +29°C° 0.2 mm 8 m/S 759 mmHg 79%
    01:00 +29°C° 0.2 mm 8 m/S 759 mmHg 79%
    02:00 +29°C° 0.2 mm 8 m/S 759 mmHg 78%
    03:00 +29°C° 0.2 mm 8 m/S 759 mmHg 78%
    04:00 +29°C° 0.2 mm 8 m/S 759 mmHg 78%
    05:00 +29°C° 0.2 mm 8 m/S 759 mmHg 77%
    06:00 +29°C° 0.1 mm 8 m/S 759 mmHg 77%
    07:00 +29°C° 0.1 mm 8 m/S 759 mmHg 77%
    08:00 +29°C° 0.1 mm 7 m/S 760 mmHg 76%
    09:00 +29°C° 0 mm 7 m/S 760 mmHg 76%
    10:00 +29°C° 0 mm 7 m/S 760 mmHg 75%
    11:00 +29°C° 0 mm 7 m/S 760 mmHg 75%
    12:00 +29°C° 0 mm 7 m/S 759 mmHg 75%
    13:00 +29°C° 0 mm 7 m/S 758 mmHg 75%
    14:00 +30°C° 0 mm 7 m/S 757 mmHg 75%
    15:00 +29°C° 0 mm 7 m/S 757 mmHg 76%
    16:00 +29°C° 0 mm 7 m/S 757 mmHg 76%
    17:00 +29°C° 0 mm 7 m/S 757 mmHg 77%
    18:00 +29°C° 0 mm 7 m/S 757 mmHg 77%
    19:00 +29°C° 0 mm 7 m/S 758 mmHg 78%
    20:00 +29°C° 0 mm 7 m/S 758 mmHg 78%
    21:00 +29°C° 0 mm 7 m/S 758 mmHg 78%
    22:00 +29°C° 0 mm 6 m/S 759 mmHg 77%
    23:00 +29°C° 0 mm 6 m/S 759 mmHg 77%

    24 November, Samstag

    Zeit Temperatur Niederschläge Wind Luftdruck Luftfeuchtigkeit
    00:00 +29°C° 0 mm 6 m/S 758 mmHg 77%
    01:00 +29°C° 0 mm 5 m/S 758 mmHg 77%
    02:00 +29°C° 0 mm 5 m/S 758 mmHg 76%
    03:00 +29°C° 0 mm 5 m/S 758 mmHg 76%
    04:00 +29°C° 0 mm 5 m/S 758 mmHg 76%
    05:00 +29°C° 0 mm 5 m/S 758 mmHg 76%
    06:00 +29°C° 0 mm 5 m/S 759 mmHg 77%
    07:00 +29°C° 0 mm 5 m/S 759 mmHg 77%
    08:00 +29°C° 0 mm 5 m/S 759 mmHg 77%
    09:00 +29°C° 0 mm 5 m/S 759 mmHg 77%
    10:00 +30°C° 0 mm 5 m/S 759 mmHg 76%
    11:00 +30°C° 0 mm 5 m/S 760 mmHg 76%
    12:00 +30°C° 0 mm 5 m/S 759 mmHg 76%
    13:00 +30°C° 0 mm 5 m/S 758 mmHg 76%
    14:00 +30°C° 0 mm 5 m/S 758 mmHg 75%
    15:00 +30°C° 0 mm 5 m/S 758 mmHg 76%
    16:00 +30°C° 0 mm 5 m/S 758 mmHg 76%
    17:00 +29°C° 0 mm 5 m/S 757 mmHg 77%
    18:00 +29°C° 0 mm 5 m/S 758 mmHg 78%
    19:00 +29°C° 0 mm 5 m/S 758 mmHg 78%
    20:00 +29°C° 0 mm 5 m/S 759 mmHg 79%
    21:00 +29°C° 0 mm 5 m/S 759 mmHg 80%
    22:00 +29°C° 0 mm 5 m/S 759 mmHg 80%
    23:00 +29°C° 0 mm 5 m/S 759 mmHg 81%
    Mehr zeigen